TimeEST,TemperatureF,Dew PointF,Humidity,Sea Level PressureIn,VisibilityMPH,Wind Direction,Wind SpeedMPH,Gust SpeedMPH,PrecipitationIn,Events,Conditions,WindDirDegrees,DateUTC
12:52 AM,37.9,34.0,86,29.81,10.0,Calm,Calm,-,N/A,,Clear,0,2014-01-15 05:52:00
1:12 AM,37.0,34.0,89,29.80,10.0,Variable,5.8,-,N/A,,Mostly Cloudy,0,2014-01-15 06:12:00
1:40 AM,36.0,33.1,89,29.82,10.0,WSW,5.8,-,N/A,,Scattered Clouds,240,2014-01-15 06:40:00
1:52 AM,35.1,33.1,92,29.83,10.0,Calm,Calm,-,N/A,,Partly Cloudy,0,2014-01-15 06:52:00
2:20 AM,34.0,32.0,92,29.85,10.0,ESE,3.5,-,N/A,,Mostly Cloudy,120,2014-01-15 07:20:00
2:52 AM,32.0,30.9,96,29.87,5.0,Calm,Calm,-,N/A,,Scattered Clouds,0,2014-01-15 07:52:00
3:06 AM,30.9,30.0,96,29.86,1.8,ESE,3.5,-,N/A,,Partly Cloudy,120,2014-01-15 08:06:00
3:16 AM,32.0,30.9,96,29.86,3.0,SSW,3.5,-,N/A,,Clear,200,2014-01-15 08:16:00
3:52 AM,32.0,30.0,92,29.88,8.0,Calm,Calm,-,N/A,,Partly Cloudy,0,2014-01-15 08:52:00
4:52 AM,30.0,28.0,92,29.91,5.0,SW,3.5,-,N/A,,Clear,220,2014-01-15 09:52:00
5:30 AM,28.0,26.1,92,29.91,1.5,Calm,Calm,-,N/A,,Partly Cloudy,0,2014-01-15 10:30:00
5:32 AM,28.0,26.1,92,29.91,0.8,Calm,Calm,-,N/A,,Mist,0,2014-01-15 10:32:00
5:47 AM,28.4,26.6,93,29.92,1.5,SSW,3.5,-,N/A,,Partly Cloudy,210,2014-01-15 10:47:00
5:49 AM,28.4,26.6,93,29.92,4.0,South,3.5,-,N/A,,Partly Cloudy,190,2014-01-15 10:49:00
5:52 AM,28.0,27.0,96,29.94,7.0,Calm,Calm,-,N/A,,Partly Cloudy,0,2014-01-15 10:52:00
6:00 AM,27.0,26.1,96,29.92,1.8,Calm,Calm,-,N/A,,Partly Cloudy,0,2014-01-15 11:00:00
6:03 AM,27.0,26.1,96,29.93,1.0,Calm,Calm,-,N/A,,Mist,0,2014-01-15 11:03:00
6:10 AM,27.0,25.0,92,29.94,0.2,Calm,Calm,-,N/A,Fog,Light Freezing Fog,0,2014-01-15 11:10:00
6:23 AM,27.0,26.1,96,29.94,1.2,Calm,Calm,-,N/A,,Clear,0,2014-01-15 11:23:00
6:26 AM,27.0,26.1,96,29.94,2.5,Calm,Calm,-,N/A,,Clear,0,2014-01-15 11:26:00
6:33 AM,27.0,25.0,92,29.95,5.0,Calm,Calm,-,N/A,,Clear,0,2014-01-15 11:33:00
6:52 AM,27.0,25.0,92,29.96,5.0,Calm,Calm,-,N/A,,Clear,0,2014-01-15 11:52:00
7:27 AM,26.1,25.0,96,29.96,1.8,Calm,Calm,-,N/A,,Clear,0,2014-01-15 12:27:00
7:39 AM,26.1,25.0,96,29.96,3.0,Calm,Calm,-,N/A,,Clear,0,2014-01-15 12:39:00
7:52 AM,27.0,25.0,92,29.99,4.0,Calm,Calm,-,N/A,,Clear,0,2014-01-15 12:52:00
8:52 AM,30.9,28.9,92,30.00,3.0,Calm,Calm,-,N/A,,Clear,0,2014-01-15 13:52:00
9:52 AM,35.1,30.9,85,30.00,10.0,SSW,3.5,-,N/A,,Clear,200,2014-01-15 14:52:00
10:52 AM,39.0,33.1,79,30.00,10.0,South,6.9,-,N/A,,Partly Cloudy,190,2014-01-15 15:52:00
11:07 AM,37.9,33.1,83,29.99,10.0,South,8.1,-,N/A,,Mostly Cloudy,190,2014-01-15 16:07:00
11:44 AM,39.9,34.0,79,29.97,10.0,South,6.9,-,N/A,,Scattered Clouds,190,2014-01-15 16:44:00
11:52 AM,39.9,34.0,79,29.98,10.0,SSE,8.1,-,N/A,,Partly Cloudy,160,2014-01-15 16:52:00
12:52 PM,43.0,33.1,68,29.95,10.0,South,6.9,-,N/A,,Clear,190,2014-01-15 17:52:00
1:52 PM,44.1,33.1,65,29.93,10.0,South,6.9,-,N/A,,Clear,180,2014-01-15 18:52:00
2:52 PM,45.0,32.0,60,29.93,10.0,South,5.8,-,N/A,,Clear,190,2014-01-15 19:52:00
3:52 PM,45.0,32.0,60,29.92,10.0,South,9.2,-,N/A,,Clear,180,2014-01-15 20:52:00
4:52 PM,39.0,32.0,76,29.93,10.0,SSW,4.6,-,N/A,,Clear,210,2014-01-15 21:52:00
5:52 PM,37.9,33.1,83,29.94,10.0,Calm,Calm,-,N/A,,Overcast,0,2014-01-15 22:52:00
6:52 PM,36.0,33.1,89,29.94,10.0,SSW,4.6,-,N/A,,Scattered Clouds,200,2014-01-15 23:52:00
7:52 PM,32.0,30.0,92,29.94,7.0,Calm,Calm,-,N/A,,Clear,0,2014-01-16 00:52:00
8:52 PM,30.0,28.9,96,29.92,4.0,NNW,3.5,-,N/A,,Clear,330,2014-01-16 01:52:00
8:55 PM,30.0,28.9,96,29.89,2.5,Calm,Calm,-,N/A,,Partly Cloudy,0,2014-01-16 01:55:00
8:59 PM,30.0,28.9,96,29.89,1.2,Calm,Calm,-,N/A,,Partly Cloudy,0,2014-01-16 01:59:00
9:07 PM,30.0,28.9,96,29.89,2.0,Calm,Calm,-,N/A,,Partly Cloudy,0,2014-01-16 02:07:00
9:15 PM,30.0,28.9,96,29.89,4.0,Calm,Calm,-,N/A,,Partly Cloudy,0,2014-01-16 02:15:00
9:37 PM,28.9,28.0,96,29.88,2.5,Calm,Calm,-,N/A,,Clear,0,2014-01-16 02:37:00
9:52 PM,28.9,28.0,96,29.91,2.5,Calm,Calm,-,N/A,,Partly Cloudy,0,2014-01-16 02:52:00
9:54 PM,28.0,27.0,96,29.88,1.2,Calm,Calm,-,N/A,,Partly Cloudy,0,2014-01-16 02:54:00
9:59 PM,28.0,27.0,96,29.88,0.8,Calm,Calm,-,N/A,,Scattered Clouds,0,2014-01-16 02:59:00
10:03 PM,28.9,27.0,92,29.88,1.2,Calm,Calm,-,N/A,,Partly Cloudy,0,2014-01-16 03:03:00
10:05 PM,28.9,27.0,92,29.88,2.0,Calm,Calm,-,N/A,,Partly Cloudy,0,2014-01-16 03:05:00
10:26 PM,28.9,28.0,96,29.88,3.0,Calm,Calm,-,N/A,,Mostly Cloudy,0,2014-01-16 03:26:00
10:30 PM,28.9,28.0,96,29.88,1.8,Calm,Calm,-,N/A,,Mostly Cloudy,0,2014-01-16 03:30:00
10:34 PM,28.9,28.0,96,29.88,1.0,Calm,Calm,-,N/A,,Mostly Cloudy,0,2014-01-16 03:34:00
10:43 PM,28.9,28.0,96,29.88,1.5,Calm,Calm,-,N/A,,Overcast,0,2014-01-16 03:43:00
10:47 PM,28.4,28.4,100,29.88,3.0,Calm,Calm,-,N/A,,Overcast,0,2014-01-16 03:47:00
10:52 PM,28.9,28.0,96,29.89,4.0,Calm,Calm,-,N/A,,Overcast,0,2014-01-16 03:52:00
11:25 PM,30.0,28.9,96,29.87,4.0,Calm,Calm,-,N/A,,Overcast,0,2014-01-16 04:25:00
11:52 PM,30.9,30.0,96,29.89,4.0,Calm,Calm,-,N/A,,Overcast,0,2014-01-16 04:52:00